Regional Weather Roundup
Issued by NWS

Home | Current Version | Previous Version | Text Only | Print | Product List | Glossary On
Versions: 1 2 3 4 5 6 7 8 9 10 11 12 13 14 15 16 17 18 19 20 21 22 23 24 25 26 27
000
ASUS45 KBOU 221107
RWRCO

WEATHER ROUNDUP FOR COLORADO
NATIONAL WEATHER SERVICE DENVER/BOULDER CO
400 AM MST WED FEB 22 2017

NOTE: "FAIR" INDICATES FEW OR NO CLOUDS BELOW 12000 FEET WITH NO
SIGNIFICANT WEATHER AND/OR OBSTRUCTIONS TO VISIBILITY.

COZ001>005-013-030-031-221200-
...NORTHWEST COLORADO...

CITY           SKY/WX    TMP DP  RH WIND       PRES   REMARKS
CRAIG          FLURRIES  33  25  72 W3        30.00S
HAYDEN         FAIR      30  21  69 SW8       29.98S WCI  23
MEEKER         FAIR      45  30  55 SW12G22   29.95F
MOUNT WERNER   NOT AVBL
STEAMBOAT SPGS MOCLDY    30  26  85 N3        29.97S
WALDEN         NOT AVBL
$$

COZ006>008-011-221200-
...WEST CENTRAL VALLEYS...

CITY           SKY/WX    TMP DP  RH WIND       PRES   REMARKS
GRAND JUNCTION FAIR      43  34  70 CALM      29.96F
MONTROSE       FAIR      45  26  47 N10       30.04F
EAGLE          FAIR      43  23  45 W8        29.97F
RIFLE          FAIR      43  31  62 NE7       29.95S
DELTA          FAIR      53  32  45 SW12G20   30.01F
NUCLA          FAIR      46  32  57 SE3       30.10S
$$

COZ017>023-064>068-221200-
...SOUTHWEST COLORADO...

CITY           SKY/WX    TMP DP  RH WIND       PRES   REMARKS
DURANGO        FAIR      36  31  82 NE6       30.14F
CORTEZ         FAIR      36  33  89 NE7       30.12F
PAGOSA SPRINGS FAIR      34  32  94 CALM      30.17F
TELLURIDE      FAIR      40  11  31 SW10G24   30.16F
WOLF CREEK PAS FAIR      23  23 100 SW24G36   30.23F WCI   7
$$

COZ009-010-012-014-032>034-037-058>063-221200-
...CENTRAL COLORADO...

CITY           SKY/WX    TMP DP  RH WIND       PRES   REMARKS
ASPEN          FAIR      43  17  35 VRB5      30.00R
BUENA VISTA    FAIR      38  13  36 W9        30.02S
COPPER MTN     LGT SNOW  28  14  54 W31       30.04F VSB 1   WCI  12
BERTHOUD PASS  CLOUDY    21  10  63 W33G54    30.01R WCI   2
COTTONWOOD PAS FAIR      37   5  25 SW8G21    30.06S
GUNNISON       FAIR      23  18  81 CALM      30.06F
KREMMLING      MOCLDY    45  23  42 W10       29.96S
LEADVILLE      FAIR      31  11  43 MISG      30.02S
MONARCH PASS   FAIR      23  14  68 SW30G37   30.20S WCI   5
SALIDA         FAIR      37  20  50 W3        30.11S
SUNLIGHT       NOT AVBL
WILKERSON PASS FAIR      27  12  54 SW13G28   30.06F WCI  16
$$

COZ069>075-221200-
...SAN LUIS VALLEY/SANGRE DE CRISTO MOUNTAINS...

CITY           SKY/WX    TMP DP  RH WIND       PRES   REMARKS
ALAMOSA        FAIR      35  29  78 SE14G22   30.09F WCI  26
LA VETA PASS   FAIR      30  25  80 N10G22    30.18S WCI  21
SAGUACHE       FAIR      32  23  69 CALM      30.08S
$$

COZ035-036-038>040-221200-
...NORTHERN COLORADO FRONT RANGE...

CITY           SKY/WX    TMP DP  RH WIND       PRES   REMARKS
DENVER INTL AP FAIR      47  16  29 S14       29.85S
DMNS CITY PARK   N/A     47  16  28 SE6       29.85S
AURORA         MOCLDY    48  17  28 S14       29.87R
FRONT RANGE AP FAIR      48  19  32 SW14G21   29.87R
ERIE MUNI ARPT FAIR      33  19  55 CALM      29.85S
BOULDER MUN AP FAIR      52  18  25 W7G18     29.85S
CENTENNIAL     FAIR      51  16  24 SW20G28   29.87F
BROOMFIELD     FAIR      43  14  31 CALM      29.86S
FORT COLLINS   FAIR      42  27  55 N15       29.86R
LONGMONT       FAIR      53  18  24 SW8       29.86S
$$

COZ041-046-047-076>085-087-088-221200-
...PIKES PEAK/PALMER DIVIDE AND SOUTHERN FOOTHILLS...

CITY           SKY/WX    TMP DP  RH WIND       PRES   REMARKS
COLO. SPRINGS  FAIR      52  20  28 W13       29.96S
A. F. ACADEMY  FAIR      49  13  23 N7        29.95F
SCHRIEVER AFB  FAIR      48  20  33 W23       29.94F
ELLICOTT       FAIR     N/A N/A N/A NW7       29.93S
FALCON         FAIR      42  18  37 W12       29.97S
FORT CARSON    FAIR      50  22  32 W16       29.93F
LIMON          FAIR      49  16  26 W14       29.84S
MONUMENT HILL  FAIR      45  16  31 SW20G26   29.95F
TRINIDAD       FAIR      54  24  31 W21G31    29.96S
$$

COZ042>045-048>051-090-091-221200-
...NORTHEAST COLORADO...

CITY           SKY/WX    TMP DP  RH WIND       PRES   REMARKS
GREELEY ARPT   FAIR      42  27  55 N18       29.87R
AKRON          FAIR      39  19  44 NW15      29.85R
BURLINGTON     FAIR      46  18  32 SW13      29.84S
WRAY           NOT AVBL
STERLING       FAIR      43  32  65 N14       29.84R
HOLYOKE        FAIR      41  23  48 NW9       29.85S
FORT MORGAN    FAIR      42  28  59 N22G31    29.85R
$$

COZ086-089-092>099-221200-
...SOUTHEAST COLORADO...

CITY           SKY/WX    TMP DP  RH WIND       PRES   REMARKS
PUEBLO         FAIR      51  23  33 CALM      29.90R
LA JUNTA       FAIR      52  24  33 W13       29.88F
LAMAR          FAIR      36  15  42 SW6       29.86S
SPRINGFIELD      N/A     50  18  28 W15       29.89R
$$




USA.gov is the U.S. government's official web portal to all federal, state and local government web resources and services.